This is the latest recevied weather packets stored in our database for station/object KK6LVQ-13. If no packets are shown the sender has not sent any weather packets the latest 10 day(s).
| Time | Temp. | Humidity | Pressure | Rain* | Wind** | Luminosity | Snow |
|---|---|---|---|---|---|---|---|
| 1777428281 | 16.11° C | 68% | 1023.1 hPa | 0 mm | - | 43 W/m² | - |
| 1777427976 | 16.11° C | 66% | 1023.3 hPa | 0 mm | - | 50 W/m² | - |
| 1777427673 | 16.11° C | 65% | 1023.1 hPa | 0 mm | - | 58 W/m² | - |
| 1777427370 | 16.67° C | 64% | 1023.3 hPa | 0 mm | - | 68 W/m² | - |
| 1777427067 | 16.67° C | 63% | 1023.2 hPa | 0 mm | - | 74 W/m² | - |
| 1777426764 | 17.22° C | 62% | 1023.2 hPa | 0 mm | - | 86 W/m² | - |
| 1777426461 | 17.22° C | 61% | 1023.4 hPa | 0 mm | - | 96 W/m² | - |
| 1777426157 | 17.22° C | 60% | 1023.4 hPa | 0 mm | - | 106 W/m² | - |
| 1777425852 | 17.22° C | 60% | 1023.4 hPa | 0 mm | - | 121 W/m² | - |
| 1777425547 | 17.22° C | 60% | 1023.2 hPa | 0 mm | - | 134 W/m² | - |
| 1777425236 | 17.78° C | 59% | 1023.2 hPa | 0 mm | - | 153 W/m² | - |
| 1777424934 | 17.78° C | 59% | 1023.3 hPa | 0 mm | - | 167 W/m² | - |
| 1777424630 | 17.78° C | 59% | 1023.2 hPa | 0 mm | - | 181 W/m² | - |
| 1777424325 | 17.78° C | 58% | 1023.2 hPa | 0 mm | - | 197 W/m² | - |
| 1777424021 | 17.78° C | 57% | 1023.3 hPa | 0 mm | - | 216 W/m² | - |
| 1777423718 | 18.33° C | 57% | 1023.2 hPa | 0 mm | - | 228 W/m² | - |
| 1777423414 | 17.78° C | 57% | 1023 hPa | 0 mm | - | 244 W/m² | - |
| 1777423114 | 17.78° C | 57% | 1023.3 hPa | 0 mm | - | 260 W/m² | - |
| 1777422809 | 18.33° C | 58% | 1023.1 hPa | 0 mm | - | 280 W/m² | - |
| 1777422505 | 18.89° C | 59% | 1023 hPa | 0 mm | - | 297 W/m² | - |
| 1777422201 | 18.33° C | 60% | 1023 hPa | 0 mm | - | 312 W/m² | - |
| 1777421900 | 18.89° C | 61% | 1022.8 hPa | 0 mm | - | 333 W/m² | - |
| 1777421596 | 18.89° C | 61% | 1022.9 hPa | 0 mm | - | 344 W/m² | - |
| 1777421291 | 18.33° C | 62% | 1023 hPa | 0 mm | - | 360 W/m² | - |
| 1777420988 | 18.89° C | 61% | 1022.9 hPa | 0 mm | - | 378 W/m² | - |
* Rain latest hour (hover to see other rain measurements)
** Current wind speed in m/s (hover to see current wind gust speed)